Location: Arclight Observatory
(36.5667°N, 87.3333°W)
Time: 06:59:58
(UTC-05:00)

HST - Visible Passes

Search period start: 29 August 2014 00:00
Search period end: 08 September 2014 00:00
Orbit: 547 x 551 km, 28.5° (Epoch: 29 August)

Date Brightness Start Highest point End Pass type
(mag) Time Alt. Az. Time Alt. Az. Time Alt. Az.
29 Aug 3.3 04:10:52 12° SE 04:10:52 12° SE 04:11:14 10° SE visible
04 Sep 3.0 20:33:28 10° S 20:34:17 12° S 20:34:17 12° S visible
05 Sep 2.7 20:25:42 10° SSW 20:28:03 15° SSE 20:28:03 15° SSE visible
06 Sep 2.5 20:18:12 10° SSW 20:21:02 18° SSE 20:21:43 17° SSE visible
07 Sep 2.4 20:10:51 10° SW 20:13:59 20° SSE 20:15:17 18° SE visible
